Location: Colorado National Monument
(39.1030°N, 108.7297°W)
Time: 17:46:13
(UTC-07:00)

OTV 5 (USA 277) - Visible Passes

Search period start: 19 February 2019 00:00
Search period end: 01 March 2019 00:00
Orbit: 342 x 346 km, 54.5° (Epoch: 17 February)

Date Brightness Start Highest point End Pass type
(mag) Time Alt. Az. Time Alt. Az. Time Alt. Az.
21 Feb ? 19:59:38 10° SW 19:59:52 12° SW 19:59:52 12° SW visible
22 Feb ? 18:49:25 10° S 18:51:27 18° SE 18:52:09 16° ESE visible
23 Feb ? 19:12:05 10° SW 19:14:55 71° SE 19:15:47 40° ENE visible
24 Feb ? 19:36:02 10° WSW 19:38:37 30° NW 19:39:16 27° N visible
25 Feb ? 20:01:08 10° WNW 20:02:34 13° NNW 20:02:37 13° NNW visible
26 Feb ? 18:48:26 10° WSW 18:51:03 31° NW 18:53:41 10° NNE visible
27 Feb ? 19:13:29 10° WNW 19:14:58 13° NNW 19:16:29 10° N visible
